This is the latest recevied weather packets stored in our database for station/object KF4ERV-4. If no packets are shown the sender has not sent any weather packets the latest 10 day(s).
| Time | Temp. | Humidity | Pressure | Rain* | Wind** | Luminosity | Snow |
|---|---|---|---|---|---|---|---|
| 1778008596 | 17.22° C | 16% | 1010 hPa | 1.52 mm | - | - | - |
| 1778008582 | 17.22° C | 13% | 1010 hPa | 1.27 mm | - | - | - |
| 1778008451 | 17.22° C | 13% | 1010 hPa | 1.27 mm | - | - | - |
| 1778008313 | 17.22° C | 13% | 1010 hPa | 1.27 mm | - | - | - |
| 1778008292 | 17.78° C | 7% | 1010 hPa | 1.27 mm | - | - | - |
| 1778008200 | 17.22° C | 13% | 1010 hPa | 1.27 mm | - | - | - |
| 1778008194 | 17.78° C | 6% | 1010 hPa | 1.27 mm | - | - | - |
| 1778008161 | 17.78° C | 7% | 1010 hPa | 1.27 mm | - | - | - |
| 1778007889 | 17.78° C | 7% | 1010 hPa | 1.27 mm | - | - | - |
| 1778007871 | 17.78° C | 6% | 1010 hPa | 1.27 mm | - | - | - |
| 1778007592 | 17.78° C | 6% | 1010 hPa | 1.27 mm | - | - | - |
| 1778007290 | 17.78° C | 4% | 1010 hPa | 1.02 mm | - | - | - |
| 1778006998 | 17.78° C | - | 1010 hPa | 0.51 mm | - | - | - |
| 1778006691 | 17.78° C | 10% | 1010 hPa | 0.51 mm | - | - | - |
| 1778006394 | 17.78° C | 62% | 1010 hPa | 0.51 mm | - | - | - |
| 1778006130 | 17.78° C | 41% | 1010 hPa | 0.51 mm | - | - | - |
| 1778006097 | 17.78° C | 41% | 1010 hPa | 0.51 mm | - | - | - |
| 1778005841 | 18.33° C | 8% | 1010.1 hPa | 0.25 mm | - | - | - |
| 1778005799 | 18.33° C | 8% | 1010.1 hPa | 0.25 mm | - | - | - |
| 1778005550 | 18.33° C | 26% | 1010.9 hPa | 0 mm | - | - | - |
| 1778005493 | 18.33° C | 26% | 1010.9 hPa | 0 mm | - | - | - |
| 1778005262 | 18.89° C | 37% | 1010.3 hPa | 0 mm | - | - | - |
| 1778005194 | 18.89° C | 37% | 1010.3 hPa | 0 mm | - | - | - |
| 1778005128 | 19.44° C | 68% | 1010 hPa | 0 mm | - | - | - |
| 1778004971 | 18.89° C | 47% | 1010 hPa | 0 mm | - | - | - |
* Rain latest hour (hover to see other rain measurements)
** Current wind speed in m/s (hover to see current wind gust speed)